Tracking 35331 objects as of 15-Sep-2026
HD Live streaming from Space Station
objects crossing your sky now

STARLINK-3890

Track STARLINK-3890 now!
10-day predictions
STARLINK-3890 is classified as:


NORAD ID: 52455
Int'l Code: 2022-049E
Launch date: May 6, 2022
Source: United States (US)
Launch site: AIR FORCE EASTERN TEST RANGE (AFETR)
Your satellite tracking list
Your tracking list is empty




NASA's NSSDC Master Catalog

Two Line Element Set (TLE):
1 52455U 22049E   26258.50003471  .00046025  00000-0  13234-2 0  9993
2 52455  53.1585 292.8640 0001189  64.8597  62.4374 15.35373376  5845
Source of the keplerian elements: AFSPC